Burley, ID

9:33 AM MDT on March 28, 2017 (GMT -0600)
Burley Municipal

Weather History for KBYI - June, 2013

Change the Weather History Date:

Saturday, June 29, 2013

  Actual Average Record
Temperature  
Mean Temperature 82 °F 66 °F  
Max Temperature 98 °F 81 °F 102 °F (1990)
Min Temperature 66 °F 51 °F 35 °F (1954)
Degree Days  
Heating Degree Days 0 2  
Month to date heating degree days 101 133  
Since 1 June heating degree days 101 133  
Since 1 July heating degree days 6477 6864  
Cooling Degree Days 17 3  
Month to date cooling degree days 73 45  
Year to date cooling degree days 83 51  
Since 1 June cooling degree days 73 45  
Growing Degree Days 33 (Base 50)    
Moisture  
Dew Point 52 °F    
Average Humidity 44    
Maximum Humidity 68    
Minimum Humidity 20    
Precipitation  
Precipitation 0.00 in 0.02 in 0.55 in (1955)
Month to date precipitation 0.11 0.86  
Year to date precipitation 2.29 6.05  
Sea Level Pressure  
Sea Level Pressure 29.89 in    
Wind  
Wind Speed 6 mph (ENE)    
Max Wind Speed 23 mph    
Max Gust Speed 35 mph    
Visibility 10 miles    
Events      
T = Trace of Precipitation, MM = Missing Value Source: NWS Daily Summary

Daily Weather History Graph

Daily Weather History Graph

Search for Another Location

Airport or City:

Trip Planner

Search our weather history database for the weather conditions in past years. The results will help you decide how hot, cold, wet, or windy it might be!

Date:

Astronomy

Jun. 29, 2013 Rise Set
Actual Time 6:00 AM MDT 9:16 PM MDT
Civil Twilight 5:25 AM MDT 9:51 PM MDT
Nautical Twilight 4:40 AM MDT 10:36 PM MDT
Astronomical Twilight 3:45 AM MDT 11:30 PM MDT
Moon 12:38 AM MDT (6/29) 1:26 PM MDT (6/29)
Length of Visible Light 16h 25m
Length of Day
15h 15m
Waning Gibbous, 55% of the Moon is Illuminated
Jun 29
Waning Gibbous
Jun 29
Last Quarter
Jul 8
New
Jul 15
First Quarter
Jul 22
Full

Hourly Weather History & Observations

Time (MDT) Temp. Heat Index Dew Point Humidity Pressure Visibility Wind Dir Wind Speed Gust Speed Precip Events Conditions
12:53 AM 73.0 °F - 51.1 °F 46% 29.94 in 10.0 mi Calm Calm - N/A   Clear
1:53 AM 70.0 °F - 55.9 °F 61% 29.95 in 10.0 mi Calm Calm - N/A   Clear
2:53 AM 68.0 °F - 57.0 °F 68% 29.96 in 10.0 mi Calm Calm - N/A   Clear
3:53 AM 69.1 °F - 55.9 °F 63% 29.94 in 10.0 mi East 4.6 mph - N/A   Clear
4:53 AM 70.0 °F - 55.0 °F 59% 29.93 in 10.0 mi Calm Calm - N/A   Clear
5:53 AM 75.9 °F - 46.9 °F 36% 29.91 in 10.0 mi East 8.1 mph - N/A   Partly Cloudy
6:53 AM 69.1 °F - 54.0 °F 58% 29.93 in 10.0 mi NNE 4.6 mph - N/A   Clear
7:53 AM 70.0 °F - 55.0 °F 59% 29.94 in 10.0 mi Variable 5.8 mph - N/A   Clear
8:53 AM 75.9 °F - 55.0 °F 48% 29.94 in 10.0 mi NNE 4.6 mph - N/A   Clear
9:53 AM 79.0 °F - 52.0 °F 39% 29.94 in 10.0 mi NE 10.4 mph - N/A   Clear
10:53 AM 84.0 °F 82.5 °F 53.1 °F 34% 29.93 in 10.0 mi ENE 6.9 mph - N/A   Clear
11:53 AM 87.1 °F 85.3 °F 55.0 °F 33% 29.91 in 10.0 mi ENE 3.5 mph - N/A   Clear
12:53 PM 91.9 °F 91.2 °F 59.0 °F 33% 29.89 in 10.0 mi Calm Calm - N/A   Clear
1:53 PM 96.1 °F 93.5 °F 53.1 °F 23% 29.87 in 10.0 mi Variable 4.6 mph - N/A   Clear
2:53 PM 97.0 °F - 48.9 °F 19% 29.84 in 10.0 mi North 5.8 mph - N/A   Clear
3:53 PM 98.1 °F - 51.1 °F 20% 29.80 in 10.0 mi North 8.1 mph - N/A   Clear
4:53 PM 98.1 °F - 52.0 °F 21% 29.79 in 10.0 mi NNE 5.8 mph - N/A   Clear
5:42 PM 87.8 °F - 46.4 °F 24% 29.97 in 10.0 mi SW 21.9 mph 29.9 mph N/A   Clear
5:53 PM 88.0 °F - 46.9 °F 24% 29.81 in 10.0 mi South 15.0 mph - N/A   Clear
6:53 PM 86.0 °F - 46.0 °F 25% 29.84 in 10.0 mi SSW 13.8 mph 20.7 mph N/A   Clear
7:53 PM 86.0 °F - 46.0 °F 25% 29.83 in 10.0 mi SSW 8.1 mph - N/A   Clear
8:53 PM 82.0 °F - 48.0 °F 30% 29.85 in 10.0 mi West 5.8 mph - N/A   Clear
9:53 PM 75.9 °F - 53.1 °F 45% 29.86 in 10.0 mi ENE 5.8 mph - N/A   Clear
10:53 PM 72.0 °F - 55.0 °F 55% 29.88 in 10.0 mi East 5.8 mph - N/A   Clear
11:53 PM 69.1 °F - 55.0 °F 61% 29.89 in 10.0 mi Calm Calm - N/A   Clear